Orbital Elements at Epoch 2459200.5 (2020-Dec-17.0) TDB
Reference: JPL 15 (heliocentric ecliptic J2000)
Element | Value | Uncertainty (1-sigma) | Units |
e | .1172180031329113 | 7.3097e-08 | |
a | 3.085257535829174 | 3.7386e-08 | au |
q | 2.723609808328512 | 2.2659e-07 | au |
i | 12.91459053496041 | 7.2257e-06 | deg |
node | 38.98857993430811 | 3.1178e-05 | deg |
peri | 302.3259972430237 | 4.1302e-05 | deg |
M | 205.7884273274477 | 3.0903e-05 | deg |
tp | 2460048.410522652353 (2023-Apr-13.91052265) | 0.00017678 | TDB |
period | 1979.409086262287 5.42 | 3.5978e-05 9.85e-08 | d yr |
n | .1818724600682657 | 3.3058e-09 | deg/d |
Q | 3.446905263329837 | 4.1768e-08 | au |
|
| | Orbit Determination Parameters
Additional Information
|